Probability
100 100 100 100 100 55 0 0 0 0 0 0 0 0 0 0 0 68 55 23 97 97 97 100 100 100 100 100 100 100 100 100 100 100 100 94 71 87 94 94 100 100 100 100 100 100 100 100 100
100 100 100 100 94 0 0 0 0 0 0 0 0 0 0 0 0 0 0 35 97 97 97 100 100 100 100 100 100 100 100 100 100 100 100 84 81 81 87 87 97 100 100 97 97 100 100 100 100
100 100 100 100 3 0 0 0 0 0 0 0 0 0 0 0 0 0 0 6 97 97 87 100 100 100 100 100 100 100 100 100 100 100 94 87 87 81 84 87 100 97 100 100 100 100 97 100 100
100 100 100 68 0 0 0 0 0 0 0 0 0 0 0 0 0 0 0 3 65 94 94 100 100 100 100 100 100 100 100 100 100 87 84 77 68 71 74 81 90 94 97 100 100 100 100 97 100
100 100 90 3 0 0 0 0 0 0 0 0 0 0 3 0 0 0 0 0 35 94 94 97 100 100 100 100 100 100 100 100 100 97 90 81 71 61 77 81 74 77 74 74 87 90 97 100 97
100 100 13 0 0 0 0 0 0 0 0 0 0 0 3 0 0 0 0 0 6 94 100 100 100 100 100 100 100 100 100 100 100 100 100 94 77 68 84 87 71 45 13 10 23 35 71 97 100
100 100 19 0 0 0 0 0 0 0 0 0 0 0 0 0 0 0 0 0 0 26 100 97 100 100 100 100 100 100 100 100 100 100 100 94 84 94 97 90 74 35 0 0 0 3 13 65 84
100 100 0 0 0 0 0 0 0 0 0 0 0 0 0 0 0 0 0 0 0 3 84 90 84 94 97 100 100 100 100 100 100 100 100 100 94 84 87 87 68 13 0 0 0 0 6 42 71
48 61 0 3 16 0 0 0 0 0 0 0 0 0 0 0 0 0 0 0 0 0 19 90 90 94 90 84 100 100 100 100 100 100 100 100 55 29 58 71 42 3 3 0 0 0 10 26 45
35 61 0 3 6 0 0 0 0 0 0 0 0 0 0 0 0 0 0 0 0 0 0 26 77 97 97 97 100 100 94 100 100 97 100 100 77 32 10 45 32 6 3 0 0 0 3 3 0
3 6 0 0 0 0 0 0 0 0 0 0 0 0 3 0 0 0 0 0 0 0 3 10 29 71 97 100 97 87 81 97 97 100 97 94 61 6 0 0 3 0 0 0 0 0 0 0 0
0 3 0 0 0 0 0 0 0 0 0 0 0 0 0 0 0 0 0 0 0 0 3 3 13 35 77 94 100 100 87 94 87 97 100 87 61 29 0 0 0 3 0 0 0 0 0 0 0
0 0 0 0 0 0 0 0 0 0 0 0 0 0 0 0 0 0 0 0 0 0 3 0 10 16 45 100 100 97 97 74 55 87 97 74 61 35 0 0 3 10 0 0 0 0 0 0 0
0 0 0 0 0 0 0 0 0 0 0 0 0 0 0 0 0 0 0 0 0 0 0 3 0 13 52 100 100 97 97 94 65 71 84 42 16 13 0 0 0 0 0 0 0 0 0 0 0
0 0 0 0 0 0 0 0 0 0 0 0 0 0 0 0 3 0 0 0 0 0 0 3 3 3 16 55 77 81 97 87 77 52 39 6 0 0 0 0 0 0 0 0 0 0 0 0 0
0 0 0 0 0 0 0 0 0 0 0 0 0 0 0 0 0 0 3 3 0 0 0 0 3 3 3 13 58 48 55 84 94 68 16 0 0 0 0 0 0 0 0 0 0 0 0 0 0
0 0 0 0 0 0 0 0 0 0 0 0 0 0 0 0 0 0 0 0 0 3 3 0 3 6 10 10 65 81 55 90 90 58 16 3 0 0 0 0 0 0 0 0 0 0 0 0 0
0 0 0 0 0 0 0 0 0 0 0 0 0 0 0 0 0 0 0 3 6 6 10 6 6 13 19 68 65 94 90 87 84 71 71 32 23 3 13 3 0 0 3 0 0 0 0 0 0
0 0 0 0 0 0 0 0 0 0 0 0 0 0 0 0 0 0 0 0 6 10 13 13 23 35 55 94 100 97 100 100 97 97 87 77 42 29 29 3 6 6 6 0 0 0 0 0 0
0 0 0 0 0 0 0 0 0 0 0 0 0 0 0 0 0 0 0 3 13 19 32 29 13 19 45 87 100 100 100 100 100 100 100 90 61 42 23 16 23 10 0 0 0 0 0 0 0
0 0 0 0 0 0 0 0 0 0 0 0 0 0 0 0 0 0 0 0 3 10 16 32 52 52 65 81 94 97 94 100 97 97 84 77 61 29 26 16 10 3 10 0 0 0 3 0 0
0 0 0 0 0 0 0 0 0 0 0 0 0 0 0 0 0 0 0 0 0 3 13 19 48 71 87 90 97 94 77 52 55 58 55 48 39 29 32 13 10 3 3 0 0 0 0 0 0
0 0 0 0 0 0 0 0 0 0 0 0 0 0 0 0 0 0 0 0 0 0 6 10 29 61 84 87 87 81 61 35 35 29 29 23 19 16 16 6 0 0 0 3 0 0 0 0 0
0 0 0 0 0 0 0 0 0 0 0 0 0 0 0 0 0 0 0 0 3 0 3 3 23 39 61 81 77 58 35 26 19 10 10 10 10 6 3 3 0 0 0 0 0 0 0 0 0
0 0 0 0 0 0 0 0 0 0 0 0 0 0 0 0 0 0 0 0 0 0 0 0 6 16 29 32 23 16 13 10 3 3 3 0 0 0 3 0 0 0 0 0 0 0 0 0 0
0 0 0 0 0 0 0 0 0 0 0 0 0 0 0 0 0 0 0 0 0 0 0 0 3 3 3 6 6 3 3 0 0 0 0 0 0 0 0 0 0 0 0 0 0 0 0 0 0
0 0 0 0 0 0 0 0 0 0 0 0 0 0 0 0 0 0 0 0 0 0 0 0 0 0 0 3 3 3 3 0 0 0 0 0 0 0 0 0 0 0 0 0 0 0 0 0 0
0 0 0 0 0 0 0 0 0 0 0 0 0 0 0 0 0 0 0 0 0 0 0 0 0 0 0 0 0 0 0 0 0 0 0 0 0 0 0 0 0 0 0 0 0 0 0 0 0
0 0 0 0 0 0 0 0 0 0 0 0 0 0 0 0 0 0 0 0 0 0 0 0 0 0 0 0 0 0 0 0 0 0 0 0 0 0 0 0 0 0 0 0 0 0 0 0 0
0 0 0 0 0 0 0 0 0 0 0 0 0 0 0 0 0 0 0 0 0 0 0 0 0 0 0 0 0 0 0 0 0 0 0 0 0 0 0 0 0 0 0 0 0 0 0 0 0
Height
5907 5907 5907 5908 5910 5909 5909 5910 5909 5909 5908 5908 5908 5907 5907 5908 5910 5913 5911 5910 5910 5909 5909 5909 5909 5909 5909 5909 5908 5908 5907 5906 5905 5904 5903 5901 5900 5899 5898 5897 5896 5896 5896 5896 5896 5896 5896 5897 5897
5908 5908 5908 5909 5909 5909 5910 5910 5910 5910 5909 5909 5908 5908 5908 5908 5909 5909 5909 5911 5911 5910 5910 5910 5910 5910 5911 5910 5910 5910 5909 5908 5907 5906 5905 5904 5902 5901 5899 5898 5898 5897 5897 5897 5896 5896 5896 5896 5897
5909 5909 5909 5909 5908 5910 5911 5911 5911 5910 5910 5909 5908 5908 5908 5908 5908 5909 5909 5910 5911 5912 5911 5911 5911 5911 5911 5911 5911 5911 5911 5910 5910 5909 5908 5906 5905 5903 5902 5900 5899 5899 5898 5898 5897 5897 5897 5896 5897
5910 5911 5911 5911 5910 5910 5911 5911 5911 5911 5910 5909 5909 5909 5908 5908 5908 5908 5908 5910 5911 5912 5912 5912 5912 5912 5912 5912 5912 5912 5912 5912 5912 5911 5910 5909 5907 5905 5904 5903 5901 5900 5900 5899 5898 5898 5898 5897 5897
5911 5912 5912 5911 5911 5912 5912 5912 5912 5911 5911 5909 5909 5909 5908 5908 5908 5908 5908 5909 5911 5912 5912 5912 5912 5912 5912 5912 5912 5912 5913 5913 5913 5913 5912 5911 5910 5908 5907 5905 5904 5903 5901 5901 5900 5899 5898 5898 5898
5912 5912 5912 5912 5913 5913 5913 5913 5913 5912 5911 5910 5909 5909 5909 5908 5908 5908 5908 5909 5910 5911 5911 5912 5912 5912 5912 5912 5913 5913 5913 5913 5913 5913 5913 5912 5911 5910 5909 5908 5906 5905 5904 5903 5902 5901 5900 5899 5899
5913 5913 5912 5912 5913 5913 5913 5913 5913 5913 5912 5911 5910 5910 5909 5909 5909 5909 5908 5908 5909 5910 5911 5911 5912 5912 5913 5913 5913 5913 5913 5913 5913 5913 5913 5913 5913 5912 5911 5910 5908 5907 5906 5905 5904 5903 5902 5901 5900
5911 5912 5911 5912 5912 5912 5913 5913 5913 5913 5912 5911 5911 5910 5910 5910 5910 5909 5909 5908 5909 5909 5910 5911 5911 5911 5912 5912 5913 5913 5913 5913 5913 5913 5913 5913 5913 5912 5912 5911 5910 5909 5908 5907 5905 5904 5903 5902 5902
5910 5912 5910 5910 5911 5911 5911 5911 5912 5912 5911 5911 5910 5910 5910 5910 5910 5910 5909 5909 5909 5909 5909 5910 5910 5910 5911 5911 5912 5912 5912 5912 5912 5912 5912 5912 5912 5912 5912 5911 5910 5910 5909 5908 5907 5906 5905 5904 5903
5909 5909 5909 5909 5909 5909 5909 5909 5910 5909 5909 5909 5910 5909 5909 5909 5910 5909 5909 5909 5908 5908 5908 5908 5909 5909 5910 5910 5910 5911 5911 5911 5911 5911 5911 5911 5911 5911 5911 5911 5910 5910 5909 5908 5907 5906 5905 5905 5904
5906 5906 5907 5906 5907 5907 5907 5907 5906 5906 5907 5908 5908 5908 5908 5908 5908 5908 5908 5908 5908 5908 5908 5908 5907 5907 5908 5908 5908 5908 5909 5909 5909 5909 5909 5909 5910 5910 5909 5909 5909 5909 5908 5908 5907 5906 5905 5905 5904
5903 5903 5904 5904 5905 5905 5905 5904 5904 5905 5906 5906 5906 5905 5905 5906 5906 5906 5906 5906 5906 5906 5906 5906 5906 5905 5906 5906 5905 5906 5906 5906 5906 5906 5907 5907 5907 5908 5908 5908 5907 5907 5907 5907 5906 5905 5905 5904 5903
5900 5900 5900 5901 5901 5902 5902 5901 5901 5903 5904 5903 5903 5902 5902 5902 5903 5903 5903 5903 5903 5903 5903 5903 5903 5903 5903 5903 5903 5903 5903 5903 5903 5904 5904 5905 5904 5905 5905 5905 5905 5905 5905 5904 5904 5904 5903 5903 5902
5897 5898 5898 5898 5898 5897 5898 5897 5897 5899 5900 5899 5899 5898 5899 5899 5899 5899 5899 5900 5900 5900 5900 5900 5900 5900 5900 5900 5899 5900 5899 5900 5900 5900 5901 5901 5901 5902 5902 5902 5902 5901 5901 5901 5901 5901 5901 5900 5899
5895 5895 5894 5893 5893 5892 5893 5891 5890 5894 5895 5895 5895 5894 5895 5895 5895 5894 5894 5895 5895 5895 5896 5896 5896 5896 5896 5896 5896 5896 5896 5896 5896 5897 5897 5897 5898 5898 5898 5898 5898 5897 5897 5898 5898 5898 5897 5897 5897
5891 5890 5890 5888 5888 5887 5889 5884 5884 5887 5888 5889 5889 5888 5889 5889 5889 5889 5889 5890 5890 5891 5891 5892 5892 5892 5892 5892 5892 5891 5892 5892 5892 5892 5892 5893 5893 5893 5893 5894 5894 5893 5893 5893 5893 5894 5894 5893 5893
5886 5885 5884 5882 5882 5881 5881 5876 5876 5879 5881 5881 5881 5881 5881 5882 5883 5883 5884 5884 5885 5885 5886 5885 5886 5887 5887 5887 5888 5887 5887 5888 5888 5888 5887 5887 5888 5888 5889 5889 5889 5889 5889 5889 5888 5889 5889 5889 5888
5879 5879 5878 5876 5873 5872 5871 5869 5867 5869 5872 5872 5872 5872 5872 5872 5874 5875 5877 5878 5878 5879 5879 5879 5880 5881 5881 5882 5882 5882 5882 5882 5882 5883 5882 5882 5882 5882 5883 5883 5883 5883 5883 5883 5883 5884 5884 5884 5883
5872 5871 5870 5869 5865 5864 5863 5862 5859 5858 5861 5863 5862 5861 5861 5862 5864 5866 5868 5869 5870 5870 5871 5872 5873 5873 5874 5875 5876 5876 5875 5875 5876 5877 5876 5876 5876 5876 5877 5877 5876 5876 5877 5877 5878 5878 5878 5878 5878
5865 5862 5860 5858 5857 5855 5853 5852 5850 5848 5849 5852 5852 5851 5850 5852 5854 5855 5857 5859 5860 5861 5862 5863 5864 5865 5866 5867 5868 5868 5867 5867 5868 5869 5869 5868 5868 5869 5870 5870 5869 5869 5869 5870 5871 5872 5872 5873 5873
5857 5853 5850 5848 5846 5844 5843 5841 5841 5838 5837 5839 5840 5840 5840 5842 5843 5845 5847 5849 5850 5852 5853 5854 5855 5856 5857 5858 5858 5858 5855 5856 5858 5859 5859 5860 5860 5861 5862 5862 5862 5862 5861 5862 5863 5865 5866 5867 5867
5849 5845 5841 5838 5835 5833 5833 5829 5832 5830 5827 5827 5827 5829 5830 5832 5833 5835 5838 5839 5841 5843 5844 5846 5847 5848 5849 5850 5850 5850 5848 5847 5848 5848 5849 5850 5851 5853 5854 5854 5854 5854 5854 5854 5855 5857 5858 5860 5860
5842 5838 5834 5829 5823 5820 5821 5819 5823 5820 5817 5817 5817 5817 5818 5821 5824 5826 5829 5831 5832 5834 5836 5838 5839 5840 5841 5842 5842 5842 5842 5842 5841 5840 5840 5840 5841 5843 5845 5846 5847 5846 5846 5847 5848 5849 5850 5852 5853
5836 5832 5826 5820 5813 5810 5810 5810 5811 5809 5808 5808 5808 5806 5807 5810 5813 5816 5819 5822 5824 5826 5828 5830 5832 5833 5833 5834 5833 5833 5834 5834 5833 5833 5833 5832 5832 5834 5836 5838 5838 5838 5838 5839 5840 5841 5842 5844 5845
5832 5826 5820 5814 5808 5805 5802 5801 5801 5799 5799 5798 5798 5796 5796 5800 5804 5807 5810 5812 5814 5817 5819 5821 5823 5824 5825 5825 5824 5824 5825 5825 5825 5825 5826 5825 5824 5826 5828 5829 5830 5830 5830 5831 5832 5833 5834 5836 5837
5828 5823 5817 5811 5805 5801 5798 5795 5794 5792 5791 5791 5790 5789 5790 5793 5795 5798 5800 5802 5804 5807 5809 5811 5812 5814 5814 5814 5815 5815 5815 5815 5816 5817 5817 5817 5818 5818 5820 5821 5821 5821 5821 5822 5823 5824 5826 5828 5830
5826 5820 5815 5809 5804 5800 5796 5792 5790 5787 5785 5784 5784 5784 5784 5786 5787 5789 5791 5793 5794 5796 5798 5800 5801 5802 5803 5804 5804 5804 5805 5806 5807 5808 5809 5809 5809 5810 5811 5811 5811 5811 5812 5813 5814 5816 5818 5820 5822
5825 5819 5814 5808 5803 5799 5796 5791 5788 5784 5782 5780 5778 5778 5779 5780 5781 5782 5784 5785 5786 5787 5788 5789 5791 5792 5793 5793 5794 5795 5797 5798 5799 5800 5801 5801 5801 5802 5802 5802 5802 5802 5803 5805 5806 5808 5810 5812 5814
5825 5819 5813 5808 5803 5799 5795 5794 5787 5783 5780 5778 5776 5775 5775 5777 5778 5780 5780 5781 5780 5780 5781 5781 5782 5784 5785 5786 5787 5788 5790 5791 5791 5792 5793 5793 5793 5793 5793 5793 5794 5795 5796 5797 5799 5801 5803 5805 5807
5825 5820 5815 5810 5804 5799 5796 5795 5787 5783 5781 5778 5776 5776 5776 5776 5777 5777 5778 5778 5778 5777 5777 5777 5778 5778 5779 5781 5782 5782 5784 5785 5785 5785 5786 5786 5786 5786 5787 5787 5789 5790 5792 5793 5794 5795 5797 5799 5800
Wind_Speed
5 3 3 4 3 3 4 5 5 5 5 4 4 4 3 2 4 4 1 2 5 6 6 7 8 10 11 12 13 14 15 16 17 17 17 16 15 14 13 11 9 8 6 6 5 4 2 1 4
4 2 3 4 4 5 4 4 3 3 4 4 4 4 3 2 3 4 3 1 3 5 6 6 7 8 10 11 12 13 14 15 16 16 17 17 16 16 15 14 12 10 8 6 6 5 4 0 3
4 3 4 4 7 6 5 3 2 2 3 3 4 4 3 3 4 5 5 3 2 3 5 5 6 7 8 9 11 12 12 13 14 15 16 17 17 18 17 16 14 12 10 8 6 6 5 2 1
4 4 4 7 7 6 5 4 3 2 2 3 3 3 3 3 3 4 5 5 3 2 3 4 5 5 6 7 8 10 10 10 10 12 13 15 16 18 18 17 16 15 12 10 9 7 6 4 1
3 3 2 6 5 4 4 3 2 2 2 3 3 3 3 3 3 3 4 5 5 4 3 4 4 4 5 5 6 6 7 7 7 8 9 11 13 15 17 17 16 16 15 13 11 9 7 5 3
3 3 1 3 1 1 2 1 1 1 2 3 4 3 3 3 3 3 3 5 6 7 6 4 4 4 4 4 4 4 4 3 3 3 4 6 8 10 13 14 15 15 15 14 13 11 9 7 5
4 3 2 2 3 2 1 1 1 1 1 3 4 5 4 5 4 2 3 5 7 8 8 6 5 4 4 4 3 4 3 3 1 1 0 1 2 5 7 10 11 11 12 12 12 11 10 8 6
7 6 6 6 6 5 5 4 4 3 3 3 5 5 5 5 4 3 3 4 6 8 9 8 8 7 6 5 5 5 4 4 3 2 2 2 2 2 2 4 6 7 8 9 10 10 10 9 7
10 10 9 9 10 9 9 8 7 7 7 6 6 6 5 5 6 5 4 3 5 7 8 9 9 10 10 9 8 7 7 6 5 4 4 3 4 4 3 3 2 3 4 5 6 7 8 8 7
13 14 12 12 15 13 13 13 12 12 11 10 9 8 7 7 7 6 6 6 5 6 7 8 9 11 11 12 12 11 10 10 9 8 7 6 5 6 6 6 5 4 4 4 4 4 6 6 7
16 17 15 15 17 16 16 17 17 17 14 13 13 12 10 10 9 8 8 8 8 8 8 9 9 10 11 12 13 13 14 14 14 13 12 10 9 9 9 9 9 8 7 6 6 6 6 7 7
17 18 18 19 18 19 20 21 21 19 17 17 17 17 16 14 14 12 11 10 11 10 11 11 11 12 13 13 14 15 16 17 17 17 15 14 13 12 12 12 12 11 11 9 9 10 9 8 9
19 20 20 20 21 22 23 25 25 22 21 21 21 21 21 19 18 16 16 15 14 14 14 14 14 14 15 16 16 16 17 18 19 19 19 18 17 15 15 15 16 15 15 14 13 12 12 11 11
21 21 22 24 25 26 26 28 29 24 23 24 25 25 24 23 21 20 20 19 19 18 18 17 17 17 17 18 19 18 18 19 20 21 21 21 20 19 19 18 18 18 18 17 16 15 15 14 14
23 24 26 27 29 30 29 32 34 29 27 27 27 29 28 27 26 25 25 24 24 23 22 21 20 21 20 19 19 20 20 20 21 22 22 23 24 24 23 21 20 20 19 18 18 18 18 17 16
25 26 28 29 31 34 33 37 39 34 32 31 31 33 32 31 31 31 30 28 28 27 27 26 25 24 24 22 21 21 21 21 22 23 23 24 25 25 25 23 22 21 21 21 21 20 20 18 17
27 26 28 31 32 36 35 38 40 39 37 37 36 37 37 37 36 36 35 33 32 31 31 31 29 27 27 26 24 24 23 22 23 24 24 24 24 24 24 24 25 24 24 24 24 23 21 20 19
29 29 31 33 34 34 31 36 42 42 41 41 41 42 42 42 42 40 39 38 37 36 35 35 34 32 31 30 29 28 28 26 25 25 25 25 25 25 24 25 27 27 27 27 26 24 22 21 20
30 32 34 35 39 43 44 44 46 46 44 42 43 45 46 46 45 44 42 41 40 40 39 38 37 36 35 34 34 33 32 31 29 27 27 27 27 28 27 28 30 30 30 29 27 25 24 22 20
32 34 36 38 40 43 45 46 45 45 44 42 41 43 45 45 44 43 42 42 41 40 40 39 39 38 37 36 35 36 36 34 32 30 29 28 29 30 30 31 31 31 30 30 28 26 24 23 21
30 33 36 38 40 42 42 44 43 43 46 44 42 41 42 41 40 39 38 38 38 37 37 37 37 36 36 36 35 37 37 36 34 32 32 31 31 31 31 31 31 31 30 29 29 27 26 23 22
26 30 32 34 36 38 38 41 37 36 40 41 41 40 39 37 36 34 33 32 32 32 32 32 32 32 33 34 35 36 38 38 37 36 37 36 34 33 32 32 32 31 30 30 30 29 27 25 23
27 28 30 33 35 35 32 33 31 32 37 37 36 37 37 36 34 33 31 30 29 29 29 29 29 30 31 32 34 36 38 39 40 40 41 41 39 37 36 37 36 34 32 31 31 30 29 27 25
25 26 29 32 30 26 23 23 28 34 36 35 34 34 34 34 34 34 33 33 32 31 30 30 30 31 31 33 35 36 37 40 41 42 43 44 42 39 40 40 38 36 34 34 33 32 30 28 25
23 25 27 26 20 17 18 21 27 32 37 38 37 35 34 34 34 34 34 34 35 34 34 33 33 34 35 36 37 38 38 39 41 43 45 45 42 40 39 39 37 36 35 34 34 34 31 28 25
23 25 25 23 18 13 15 19 21 25 29 35 38 36 33 34 34 33 34 35 35 35 36 36 37 38 39 40 40 39 39 39 40 42 42 42 41 40 40 39 37 36 35 35 35 34 30 28 25
23 24 23 20 17 13 14 17 19 23 26 26 28 30 31 31 30 30 30 32 33 34 35 37 38 39 39 39 38 36 36 36 37 38 38 38 39 39 38 38 37 37 35 36 35 32 28 26 25
24 23 23 20 18 14 14 15 16 16 18 21 22 22 23 23 24 24 25 26 27 29 30 32 33 34 33 32 31 31 31 31 32 33 34 34 36 37 38 38 37 35 35 35 32 28 25 24 24
24 23 23 21 19 16 15 16 16 14 13 12 11 11 12 13 15 15 16 17 19 21 22 24 25 26 26 26 26 26 27 28 30 31 32 33 34 35 34 31 30 27 27 26 24 22 21 22 24
24 24 23 22 21 18 17 18 16 13 11 8 6 3 2 3 4 3 3 5 7 9 12 14 15 17 17 18 19 21 23 24 24 26 27 26 25 24 21 19 19 19 18 18 19 19 20 22 24
Wind_Direction
85 100 130 148 148 157 97 79 65 41 28 15 356 334 316 280 251 260 284 94 83 92 107 113 108 104 95 91 90 88 86 84 79 74 69 65 61 58 57 57 59 60 60 56 53 51 47 212 220
74 99 132 158 140 116 107 94 73 44 18 355 330 313 312 287 265 255 244 189 99 91 102 116 116 113 104 96 95 93 89 85 80 75 70 64 59 56 54 53 52 52 53 54 54 51 46 28 219
89 93 100 129 99 105 107 103 98 55 15 348 318 301 305 294 274 255 237 224 172 110 102 115 121 120 114 105 99 97 94 88 82 77 72 66 61 58 55 54 52 51 50 50 52 50 45 39 229
111 103 107 95 89 90 92 86 76 40 353 334 311 295 292 303 291 259 238 230 219 176 126 121 128 130 126 121 112 103 99 91 82 77 73 68 63 60 57 56 54 53 51 49 46 46 42 38 29
154 137 128 87 78 75 71 57 41 0 349 337 320 311 298 301 298 272 238 227 220 210 185 151 142 143 140 139 136 128 113 100 84 73 69 68 64 60 57 55 54 53 51 48 46 44 41 36 34
186 195 133 63 56 83 81 62 25 336 341 331 323 327 314 314 301 270 231 218 215 216 217 194 174 165 162 162 162 159 149 130 96 70 63 62 60 56 54 54 53 52 51 49 46 44 42 39 35
200 214 168 222 254 248 232 230 246 255 299 320 321 326 329 325 323 287 239 220 216 220 226 224 215 210 203 195 192 190 190 192 210 235 347 38 44 43 44 47 48 49 50 50 48 44 43 42 37
214 220 209 220 243 247 241 240 245 245 247 268 293 316 327 333 334 318 274 234 223 225 229 232 235 238 235 227 220 217 217 215 230 245 250 256 271 307 349 24 38 40 43 48 47 43 40 37 37
227 229 228 234 241 238 238 237 241 242 246 253 266 284 302 313 320 322 308 270 240 236 237 239 242 246 246 244 239 234 234 233 240 248 250 250 253 261 266 284 327 8 21 31 32 31 30 26 25
237 239 245 244 247 241 239 239 242 243 248 256 260 266 275 287 298 307 310 302 283 267 260 254 252 254 254 253 251 246 244 245 245 247 250 252 248 252 263 265 269 283 308 332 342 348 357 0 2
244 248 247 243 250 248 244 244 245 247 252 260 264 265 265 271 277 284 289 293 292 288 283 279 274 272 268 264 262 257 253 250 248 248 249 252 250 253 263 266 265 267 276 289 298 304 313 323 330
253 254 254 255 255 252 250 250 250 253 256 259 266 268 267 266 268 269 270 275 280 282 284 286 289 290 288 283 276 269 263 257 253 251 252 253 255 256 260 264 265 264 267 275 285 292 295 299 302
257 259 259 260 258 256 255 254 254 255 257 259 263 266 267 267 265 266 268 267 269 273 276 281 285 289 292 291 287 281 274 267 261 257 257 258 260 262 263 261 263 264 266 268 274 282 287 288 291
268 270 268 266 264 262 261 262 261 257 257 258 261 263 264 265 266 268 268 268 268 270 272 276 281 284 287 291 292 287 281 276 270 265 264 265 265 266 268 267 264 264 264 267 273 279 284 284 285
271 271 271 271 270 268 267 267 265 264 262 263 263 263 263 265 268 269 269 270 272 272 274 276 279 282 283 286 290 289 285 281 276 272 271 271 270 270 271 270 266 264 263 266 273 279 284 285 284
271 272 274 274 275 273 271 270 268 268 268 268 267 266 265 265 266 267 269 272 273 276 278 279 279 281 282 284 285 287 288 284 280 276 276 276 275 273 273 272 267 264 263 265 272 278 281 282 280
271 272 271 271 271 272 270 269 270 270 270 270 268 268 268 267 266 266 268 271 273 275 277 277 278 279 281 281 283 284 285 284 281 279 278 278 277 276 274 272 268 264 264 268 273 276 278 279 276
276 272 270 274 268 267 264 271 273 272 272 271 271 270 269 268 268 268 269 270 271 272 273 274 276 276 278 279 281 282 282 282 281 279 277 277 276 276 274 272 270 266 265 268 271 274 275 275 274
283 279 274 271 269 270 273 276 277 275 273 270 270 269 269 268 268 268 268 267 268 269 270 271 273 274 275 276 278 278 278 278 278 278 276 274 273 273 274 274 273 272 265 264 269 271 272 270 271
285 282 278 274 272 272 274 275 276 274 273 272 270 269 269 269 269 268 267 267 266 266 267 268 269 271 272 273 274 275 274 274 275 276 275 274 272 272 274 275 276 278 270 263 263 266 268 267 268
291 286 284 284 283 280 278 274 275 276 277 275 272 271 269 268 266 265 264 263 263 262 262 264 266 268 271 273 273 272 270 273 272 272 272 271 271 273 275 278 280 282 276 265 260 262 264 264 265
298 296 297 295 290 284 278 274 272 272 272 274 273 272 270 267 265 263 261 259 259 258 258 259 262 266 270 273 275 273 272 271 271 273 273 273 274 276 281 281 282 285 282 271 261 259 259 258 262
305 304 304 302 297 288 277 269 264 259 262 264 265 265 264 263 261 259 256 254 254 253 254 256 260 265 270 274 276 275 273 271 270 270 273 274 276 276 281 283 282 281 281 273 265 257 254 253 258
316 314 313 313 309 297 279 261 251 249 251 250 252 255 258 258 257 256 254 252 252 252 253 256 260 266 271 274 276 277 274 271 269 269 271 273 277 278 282 283 283 280 281 275 264 256 250 251 255
325 326 326 330 321 298 280 257 249 249 248 248 253 255 256 258 258 258 256 254 254 254 255 258 261 266 270 273 276 277 274 270 268 268 269 272 275 278 283 283 283 281 279 273 261 254 249 250 255
335 336 339 341 336 316 290 274 261 254 253 252 255 261 262 263 263 262 260 258 256 256 257 260 263 266 269 272 273 274 271 267 266 267 269 271 274 278 283 283 284 282 276 266 257 250 248 251 256
347 347 347 347 346 336 316 302 291 279 277 271 266 266 265 263 261 259 257 256 257 258 260 262 264 266 268 270 270 269 265 263 265 268 270 272 275 279 281 282 280 277 269 259 250 245 245 250 257
357 357 357 355 354 350 331 318 316 302 291 285 283 271 262 258 255 253 254 257 259 260 260 261 262 263 264 264 262 260 259 260 262 265 268 272 273 275 277 277 274 269 261 252 243 239 244 254 262
8 7 6 6 5 359 349 341 336 330 317 310 299 278 261 253 253 258 262 266 268 266 264 262 260 259 259 257 256 256 257 259 260 262 266 268 267 267 267 265 260 253 248 242 239 241 248 258 266
13 16 17 18 19 14 9 4 1 3 4 5 355 333 306 247 234 254 270 269 273 273 271 268 263 260 259 256 255 255 255 257 260 261 261 261 262 261 257 251 244 237 237 243 246 253 259 264 268